• In Hungary
  • List of Countries
  • For 7 days
  • Water Temperature
  • Satellite Maps
  • Weather Map
  • News
  • Weather Widgets
  • user-avatar
    Login

    Hourly Weather Grodziec

    Today, 26 September, Wednesday

    Time Temperature Precipitation Wind Pressure Humidity
    00:00 +5°C° 0 mm 1 mps 748 mmHg 81%
    01:00 +4°C° 0 mm 1 mps 748 mmHg 83%
    02:00 +4°C° 0 mm 1 mps 748 mmHg 83%
    03:00 +4°C° 0 mm 1 mps 748 mmHg 83%
    04:00 +4°C° 0 mm 1 mps 748 mmHg 83%
    05:00 +5°C° 0 mm 1 mps 748 mmHg 81%
    06:00 +5°C° 0 mm 1 mps 748 mmHg 78%
    07:00 +5°C° 0 mm 2 mps 749 mmHg 75%
    08:00 +7°C° 0 mm 2 mps 748 mmHg 66%
    09:00 +9°C° 0 mm 2 mps 748 mmHg 56%
    10:00 +11°C° 0 mm 3 mps 748 mmHg 47%
    11:00 +12°C° 0 mm 3 mps 748 mmHg 45%
    12:00 +13°C° 0 mm 3 mps 747 mmHg 43%
    13:00 +14°C° 0 mm 4 mps 747 mmHg 41%
    14:00 +14°C° 0 mm 4 mps 746 mmHg 43%
    15:00 +13°C° 0 mm 3 mps 746 mmHg 46%
    16:00 +13°C° 0 mm 3 mps 745 mmHg 48%
    17:00 +12°C° 0 mm 3 mps 745 mmHg 51%
    18:00 +11°C° 0 mm 3 mps 745 mmHg 54%
    19:00 +10°C° 0 mm 3 mps 745 mmHg 56%
    20:00 +10°C° 0 mm 3 mps 744 mmHg 57%
    21:00 +9°C° 0 mm 3 mps 744 mmHg 58%
    22:00 +7°C° 0 mm 4 mps 744 mmHg 59%
    23:00 +7°C° 0 mm 4 mps 744 mmHg 58%

    Tomorrow, 27 September, Thursday

    Time Temperature Precipitation Wind Pressure Humidity
    00:00 +7°C° 0 mm 4 mps 744 mmHg 57%
    01:00 +8°C° 0 mm 3 mps 743 mmHg 56%
    02:00 +8°C° 0 mm 3 mps 743 mmHg 56%
    03:00 +8°C° 0 mm 3 mps 743 mmHg 56%
    04:00 +8°C° 0 mm 3 mps 743 mmHg 57%
    05:00 +9°C° 0 mm 3 mps 743 mmHg 56%
    06:00 +9°C° 0 mm 3 mps 743 mmHg 55%
    07:00 +10°C° 0 mm 3 mps 743 mmHg 55%
    08:00 +11°C° 0 mm 3 mps 743 mmHg 54%
    09:00 +12°C° 0 mm 3 mps 743 mmHg 54%
    10:00 +14°C° 0 mm 2 mps 743 mmHg 53%
    11:00 +16°C° 0 mm 2 mps 742 mmHg 54%
    12:00 +17°C° 0 mm 2 mps 742 mmHg 55%
    13:00 +19°C° 0 mm 2 mps 742 mmHg 55%
    14:00 +19°C° 0 mm 2 mps 742 mmHg 58%
    15:00 +19°C° 0 mm 2 mps 741 mmHg 60%
    16:00 +20°C° 0 mm 2 mps 741 mmHg 62%
    17:00 +18°C° 0 mm 2 mps 740 mmHg 68%
    18:00 +16°C° 0 mm 2 mps 740 mmHg 74%
    19:00 +14°C° 0 mm 2 mps 740 mmHg 79%
    20:00 +14°C° 0 mm 2 mps 740 mmHg 80%
    21:00 +14°C° 0 mm 2 mps 739 mmHg 81%
    22:00 +13°C° 0 mm 2 mps 739 mmHg 82%
    23:00 +13°C° 0 mm 2 mps 739 mmHg 82%

    Day after tomorrow, 28 September, Friday

    Time Temperature Precipitation Wind Pressure Humidity
    00:00 +12°C° 0 mm 3 mps 738 mmHg 82%
    01:00 +12°C° 0 mm 3 mps 738 mmHg 82%
    02:00 +12°C° 0 mm 3 mps 737 mmHg 82%
    03:00 +12°C° 0 mm 3 mps 737 mmHg 81%
    04:00 +12°C° 0 mm 3 mps 736 mmHg 81%
    05:00 +12°C° 0 mm 3 mps 736 mmHg 79%
    06:00 +12°C° 0 mm 3 mps 736 mmHg 76%
    07:00 +13°C° 0 mm 3 mps 736 mmHg 74%
    08:00 +14°C° 0 mm 3 mps 736 mmHg 65%
    09:00 +17°C° 0 mm 3 mps 736 mmHg 56%
    10:00 +19°C° 0 mm 4 mps 736 mmHg 48%
    11:00 +20°C° 0 mm 4 mps 735 mmHg 46%
    12:00 +20°C° 0 mm 3 mps 735 mmHg 45%
    13:00 +21°C° 0 mm 3 mps 735 mmHg 43%
    14:00 +20°C° 0 mm 3 mps 735 mmHg 47%
    15:00 +19°C° 0 mm 3 mps 734 mmHg 51%
    16:00 +19°C° 0 mm 3 mps 734 mmHg 54%
    17:00 +17°C° 0 mm 3 mps 734 mmHg 63%
    18:00 +14°C° 0 mm 3 mps 735 mmHg 72%
    19:00 +12°C° 0 mm 3 mps 735 mmHg 81%
    20:00 +13°C° 0 mm 2 mps 735 mmHg 81%
    21:00 +13°C° 0 mm 2 mps 735 mmHg 80%
    22:00 +13°C° 0 mm 2 mps 736 mmHg 80%
    23:00 +12°C° 0 mm 2 mps 736 mmHg 79%

    29 September, Saturday

    Time Temperature Precipitation Wind Pressure Humidity
    00:00 +12°C° 0 mm 2 mps 736 mmHg 79%
    01:00 +12°C° 0 mm 2 mps 736 mmHg 79%
    02:00 +10°C° 0.1 mm 2 mps 736 mmHg 80%
    03:00 +10°C° 0.1 mm 2 mps 736 mmHg 80%
    04:00 +9°C° 0.1 mm 2 mps 737 mmHg 81%
    05:00 +9°C° 0.1 mm 3 mps 737 mmHg 82%
    06:00 +9°C° 0.1 mm 3 mps 737 mmHg 82%
    07:00 +8°C° 0.1 mm 3 mps 738 mmHg 83%
    08:00 +8°C° 0.1 mm 4 mps 738 mmHg 76%
    09:00 +10°C° 0.1 mm 4 mps 739 mmHg 69%
    10:00 +10°C° 0.1 mm 5 mps 739 mmHg 62%
    11:00 +12°C° 0.1 mm 5 mps 739 mmHg 57%
    12:00 +12°C° 0.1 mm 5 mps 739 mmHg 52%
    13:00 +13°C° 0.1 mm 5 mps 739 mmHg 47%
    14:00 +13°C° 0 mm 5 mps 739 mmHg 47%
    15:00 +12°C° 0 mm 4 mps 740 mmHg 46%
    16:00 +12°C° 0 mm 4 mps 740 mmHg 45%
    17:00 +11°C° 0 mm 4 mps 740 mmHg 49%
    18:00 +9°C° 0 mm 3 mps 741 mmHg 53%
    19:00 +8°C° 0 mm 2 mps 741 mmHg 57%
    20:00 +8°C° 0 mm 2 mps 741 mmHg 60%
    21:00 +7°C° 0 mm 2 mps 742 mmHg 62%
    22:00 +6°C° 0 mm 2 mps 742 mmHg 65%
    23:00 +6°C° 0 mm 2 mps 742 mmHg 66%

    30 September, Sunday

    Time Temperature Precipitation Wind Pressure Humidity
    00:00 +5°C° 0 mm 2 mps 742 mmHg 68%
    01:00 +6°C° 0 mm 1 mps 742 mmHg 69%
    02:00 +6°C° 0 mm 1 mps 741 mmHg 71%
    03:00 +5°C° 0 mm 1 mps 741 mmHg 72%
    04:00 +5°C° 0 mm 1 mps 741 mmHg 73%
    05:00 +5°C° 0 mm 1 mps 741 mmHg 72%
    06:00 +5°C° 0 mm 2 mps 741 mmHg 70%
    07:00 +5°C° 0 mm 2 mps 741 mmHg 69%
    08:00 +7°C° 0 mm 2 mps 741 mmHg 60%
    09:00 +10°C° 0 mm 2 mps 741 mmHg 52%
    10:00 +12°C° 0 mm 3 mps 740 mmHg 43%
    11:00 +13°C° 0 mm 3 mps 740 mmHg 40%
    12:00 +15°C° 0 mm 2 mps 739 mmHg 37%
    13:00 +16°C° 0 mm 2 mps 739 mmHg 34%
    14:00 +16°C° 0 mm 2 mps 738 mmHg 36%
    15:00 +15°C° 0 mm 2 mps 738 mmHg 39%
    16:00 +15°C° 0 mm 2 mps 737 mmHg 41%
    17:00 +13°C° 0 mm 2 mps 737 mmHg 47%
    18:00 +10°C° 0 mm 2 mps 737 mmHg 52%
    19:00 +8°C° 0 mm 2 mps 736 mmHg 58%
    20:00 +8°C° 0 mm 2 mps 736 mmHg 60%
    21:00 +7°C° 0 mm 2 mps 736 mmHg 62%
    22:00 +7°C° 0 mm 2 mps 735 mmHg 64%
    23:00 +7°C° 0 mm 2 mps 735 mmHg 65%

    1 October, Monday

    Time Temperature Precipitation Wind Pressure Humidity
    00:00 +7°C° 0 mm 2 mps 735 mmHg 66%
    01:00 +7°C° 0 mm 2 mps 734 mmHg 67%
    02:00 +7°C° 0 mm 2 mps 734 mmHg 69%
    03:00 +7°C° 0 mm 2 mps 733 mmHg 70%
    04:00 +7°C° 0 mm 2 mps 733 mmHg 72%
    05:00 +8°C° 0 mm 2 mps 732 mmHg 72%
    06:00 +8°C° 0 mm 2 mps 732 mmHg 72%
    07:00 +9°C° 0 mm 2 mps 732 mmHg 73%
    08:00 +11°C° 0 mm 3 mps 731 mmHg 67%
    09:00 +13°C° 0 mm 3 mps 731 mmHg 61%
    10:00 +17°C° 0 mm 4 mps 731 mmHg 56%
    11:00 +17°C° 0 mm 4 mps 731 mmHg 54%
    12:00 +18°C° 0 mm 4 mps 730 mmHg 52%
    13:00 +19°C° 0 mm 4 mps 730 mmHg 51%
    14:00 +19°C° 0 mm 3 mps 729 mmHg 53%
    15:00 +18°C° 0 mm 3 mps 729 mmHg 56%
    16:00 +18°C° 0 mm 2 mps 729 mmHg 59%
    17:00 +16°C° 0 mm 2 mps 729 mmHg 64%
    18:00 +15°C° 0 mm 2 mps 729 mmHg 69%
    19:00 +14°C° 0 mm 2 mps 729 mmHg 74%
    20:00 +13°C° 0 mm 2 mps 729 mmHg 75%
    21:00 +13°C° 0 mm 2 mps 730 mmHg 76%
    22:00 +13°C° 0 mm 2 mps 730 mmHg 77%
    23:00 +13°C° 0 mm 1 mps 730 mmHg 77%
    Show more